Tel Aviv, Israel

4:32 AM IST on February 13, 2016 (GMT +0200)
Neve oz | | Change Station
CLOSE
Current Station
Personal Weather Station
Location: Petah Tikva, CENTER DISTRICT
Elevation: 190 ft
Nearby Weather Stations

Elev 190 ft 32.08 °N, 34.87 °E | Updated 23 seconds ago

Clear
Clear
50.4 °F
Feels Like 50.4 °F
N
0.0
Wind Variable Wind from ESE
Gusts 0.0 mph

Today
High -- | Low -- °F
--% Chance of Precip.
Yesterday
High -- | Low -- °F
Precip. -- in
Pressure 30.12 in
Visibility -9999.0 miles
Clouds
Dew Point 48 °F
Humidity 91%
Rainfall 0.00 in
Snow Depth Not available.
6:25 AM 5:24 PM
Waxing Crescent, 26% visible
METAR LLBG 130220Z VRB02KT CAVOK 09/07 Q1020 NOSIG
Pressure 30.12 in
Visibility -9999.0 miles
Clouds
Dew Point 48 °F
Humidity 91%
Rainfall 0.00 in
Snow Depth Not available.
6:25 AM 5:24 PM
Waxing Crescent, 26% visible
METAR LLBG 130220Z VRB02KT CAVOK 09/07 Q1020 NOSIG

10-Day Weather Forecast

No radar image for this location.
×

Almanac

Astronomy

Feb. 13, 2016 Rise Set
Actual Time
Civil Twilight
Nautical Twilight
Astronomical Twilight
Moon
Length of Visible Light
Length of Day
Tomorrow will be .
, % of the Moon is Illuminated

Today's Extremes

Country Highs Country Lows

Community

WunderPhotos

Upload Photos

1,892,464 photos uploaded!

WunderBlog® & News

Nearby

Air Quality

  Air Quality AQ Index Pollutant
Not available.

Snow Depth

Station Depth Elevation

Earthquake Activity

City Distance Mag. Time & Date
Minimum magnitude displayed is 2.5.

Coastal Water Temperatures

Place Temperature

Stations

Nearby Weather Stations

Station Location Temp. Windchill Dew Point Humidity Wind Precip. Elev Updated Type